Location: �chenoz-la-M�line
(47.6009°N, 6.1354°E)
Time: 15:51:09
(UTC+00:00)

Cosmos 2279 Rocket - Pass Details

Date: 27 January 2021
Orbit: 963 x 979 km, 82.9° (Epoch: 03 March)

Event Time Altitude Azimuth Distance (km) Brightness Sun altitude
Rises 06:21:50 0° 206° (SSW) 3,661 6.9 -8.0°
Reaches altitude 10° 06:24:27 10° 212° (SSW) 2,720 6.2 -7.6°
Maximum altitude 06:30:26 47° 285° (WNW) 1,271 4.2 -6.6°
Drops below altitude 10° 06:36:29 10° 359° (N) 2,743 6.1 -5.7°
Sets 06:39:08 0° 6° (N) 3,695 6.9 -5.3°
